Regional Weather Roundup
Issued by NWS Wakefield, VA

Home | Current Version | Previous Version | Graphics & Text | Print | Product List | Glossary On
Versions: 1 2 3 4 5 6 7 8 9 10 11 12 13 14 15 16 17 18 19 20 21 22 23 24 25 26 27
000
ASUS41 KAKQ 092315
RWRAKQ

REGIONAL WEATHER ROUNDUP
NATIONAL WEATHER SERVICE WAKEFIELD VA
600 PM EST FRI DEC 09 2016

Note: "fair" indicates few or no clouds below 12,000 feet with no
significant weather and/or obstructions to visibility. * = Denotes
station may not report precipitation (e.g., rain,snow,etc.),
thunder or fog.

VAZ042-051-052>054-056-100000-
NORTHERN VIRGINIA

CITY           SKY/WX    TMP DP  RH WIND       PRES   REMARKS
WASH NATIONAL  PTCLDY    35  17  47 W12       30.40R
DULLES         PTCLDY    31  15  52 W13G21    30.40R WCI  21
FORT BELVOIR   PTCLDY    34  15  45 NW9       30.40R
QUANTICO       CLEAR     34  17  50 N9        30.43R
FREDERICKSBRG* CLEAR     34  17  50 NW6       30.42R
STAFFORD*      CLEAR     32  15  50 NW7       30.46R
WARRENTON      CLEAR     32  11  41 NW7       30.41R
CULPEPER*      CLEAR     34  14  44 NW8       30.43R
MANASSAS*      NOT AVBL
LEESBURG*      MOCLDY    32  21  64 W9        30.41R
WINCHESTER     CLOUDY    30  16  55 W13       30.39R WCI  20
FRONT ROYAL*   FAIR      30  14  51 W7        30.40R
LURAY*         FAIR      30  18  59 W12       30.41R WCI  21
$$

VAZ048-049-060>072-079>083-100000-
CENTRAL AND SOUTH CENTRAL VIRGINIA

CITY           SKY/WX    TMP DP  RH WIND       PRES   REMARKS
RICHMOND       PTCLDY    36  12  37 NW8       30.39R
CHESTERFIELD*  FAIR      32   5  32 CALM      30.41R
PETERSBURG*    CLEAR     27  17  65 SW5       30.41R
HANOVER        CLEAR     34  12  40 NW5       30.41R
TAPPAHANNOCK*  CLEAR     36   6  29 CALM      30.40R
QUINTON*       FAIR      35  14  41 NW3       30.39R
CHARLOTTSVILLE CLEAR     34  12  40 NW8       30.40R
GORDONSVILLE*  FAIR      33  12  41 NW3       30.40R
ORANGE*          N/A     32  14  47 CALM      30.43R
LOUISA*        CLEAR     36  16  44 NW6       30.39R
BUMPASS*       FAIR      33  12  41 CALM      30.40R
FARMVILLE*     CLEAR     35  15  44 NW3       30.39R
CREWE*         FAIR      30  19  64 CALM      30.40R
FORT PICKETT*  FAIR      32   7  35 W3        30.40R
CHASE CITY*    FAIR      30  16  56 CALM      30.41R
CLARKSVILLE*   FAIR      32  16  51 W3        30.42R
SOUTH HILL*    CLEAR     28  18  64 CALM      30.46R
LAWRENCEVILLE* FAIR      30  16  56 CALM      30.41R
EMPORIA*       CLEAR     28  19  69 CALM      30.43R
$$

VAZ088>098-100000-
SOUTHEAST VIRGINIA

CITY           SKY/WX    TMP DP  RH WIND       PRES   REMARKS
NORFOLK        CLEAR     39  15  37 VRB6      30.38R
VIRGINIA BEACH PTCLDY    35  15  44 W7        30.37R
NORFOLK NAVAL  PTCLDY    37  16  42 NW12      30.40R
WEST POINT*    CLEAR     36  10  35 NW3       30.41R
SALUDA*        FAIR      38  15  39 NW12G18   30.38R
NEWPORT NEWS   CLEAR     36  14  40 NW6       30.39R
LANGLEY AFB    CLEAR     37  14  40 NW5       30.38R
FORT EUSTIS    CLEAR     37  15  39 NW9       30.36R
WILLIAMSBURG*  CLEAR     36  21  55 CALM      30.40R
HR EXEC AP*    FAIR      32  16  51 NW3       30.38R
FRANKLIN*      CLEAR     32  18  55 CALM      30.41R
US460-WAKEFLD  CLEAR     30  19  63 CALM      30.40R
$$

VAZ020-022-025-037-045-100000-
WEST CENTRAL AND SOUTHWEST VIRGINIA

CITY           SKY/WX    TMP DP  RH WIND       PRES   REMARKS
STAUNTON*      CLEAR     27  12  53 NW9       30.42R
WAYNESBORO*    FAIR      27   9  46 NW8       30.38R
HOT SPRINGS VA CLOUDY    16   7  67 NW7       30.22S
LYNCHBURG      CLEAR     29  12  49 W7        30.42R
DANVILLE       CLEAR     32  14  47 NW10      30.44R WCI  24
SOUTH BOSTON*  FAIR      32  11  42 W3        30.43R
MARTINSVILLE   CLEAR     29  11  47 N3        30.46R
ROANOKE        PTCLDY    28  11  48 NW9G17    30.45R
BLACKSBURG     CLEAR     24  12  60 NW10      30.41S WCI  13
DUBLIN*        CLEAR     24  13  61 NW6       30.41R
MARION*        CLEAR     22  11  63 NW13      30.40S WCI  10
HILLSVILLE*    CLEAR     21  12  66 NW9       30.33R
RICHLANDS*     CLOUDY    19  12  73 NW3       30.39R
WISE*          CLEAR     21  14  73 N3        30.40S
ABINGDON*      CLEAR     26  14  60 CALM      30.41S
$$

MDZ021>025-VAZ099-100-100000-
SOUTHERN MARYLAND AND THE DELMARVA PENINSULA

CITY           SKY/WX    TMP DP  RH WIND       PRES   REMARKS
PATUXENT RIVER CLEAR     35  17  47 W13       30.37R
BAY BRIDGE APT MOCLDY    36  18  48 MISG      30.36R
LEONARDTOWN    PTCLDY    34  16  47 W6        30.39R
DOVER          CLEAR     34  19  52 W13       30.31R
GEORGETOWN     CLEAR     36  17  46 NW9       30.34R
EASTON         PTCLDY    36  18  48 NW15G23   30.39R
CAMBRIDGE      PTCLDY    34  18  51 NW10G20   30.35R
SALISBURY      CLEAR     35  17  47 NW10      30.34R
OCEAN CITY     PTCLDY    34  18  52 W5        30.34R
WALLOPS ISLAND PTCLDY    34  19  54 NW8       30.36R
ACCOMACK*      CLEAR     37  18  45 NW13G23   30.35S
$$

NCZ012>017-030>032-100000-
NORTH CENTRAL AND EASTERN NORTH CAROLINA

CITY           SKY/WX    TMP DP  RH WIND       PRES   REMARKS
ROANOKE RAPIDS FAIR      34  18  51 CALM      30.42R
RALEIGH        PTCLDY    35  12  38 N3        30.42R
ELIZABETH CITY CLEAR     33  17  51 NW8       30.40R
AHOSKIE*       PTCLDY    33  16  48 CALM      30.42R
EDENTON*       CLEAR     37  20  49 CALM      30.41R
CURRITUCK*     CLEAR     37  19  48 CALM      30.39R
KILL DEVIL HLS CLEAR     38  22  53 NW5       30.36R
MANTEO         CLEAR     38  18  44 NW5       30.39R
CAPE HATTERAS  CLEAR     39  20  46 NW6       30.38R
TARBORO*       NOT AVBL
GOLDSBORO      CLEAR     37  15  40 NW6       30.40R
WASHINGTON     CLEAR     35  18  49 NW3       30.42R
GREENVILLE     CLEAR     36  19  51 CALM      30.42R
NEW BERN       CLEAR     36  20  52 NW5       30.42R
WILMINGTON     CLEAR     38  22  52 N6        30.41R
$$

VAZ048-100000-
ELSEWHERE

CITY           SKY/WX    TMP DP  RH WIND       PRES   REMARKS
HARRISBURG PA  PTCLDY    32  20  61 W17       30.31R WCI  21
BALTIMORE      PTCLDY    32  17  54 W13       30.36R WCI  22
ANNAPOLIS      CLEAR     37  17  44 W10       30.37R
ANDREWS AFB    PTCLDY    33  15  48 W13G21    30.37R WCI  24
PHILADELPHIA   MOCLDY    36  16  44 W15       30.30R
HENDERSON NC   CLEAR     31  12  45 CALM      30.42R
GREENSBORO     CLEAR     34  14  43 N6        30.41R
ROCKY MOUNT    CLEAR     33  19  56 NW3       30.42R
$$

VAZ100-100000-
MARINE

STATION/POSITION TIME  TEMP    WIND        PRES    WAVE   SWELL
                       AIR SEA DIR/SP/G            HT/PER HT/PER
                 (UTC) (F)     (DEG/KT/KT) (MB)    (FT/S) (FT/S)
BRANDYWINE LGT   2248   37     310/ 23/ 29   N/A
CAPE MAY NJ      2248   38 43  310/ 15/ 25 1025.9R
LEWES DE         2248   38 45  310/ 18/ 20 1026.5R
OCEAN-CITY-INLET 2248          320/  6/  9   N/A
WACHAPREAGUE VA  2248   37 45  290/  4/  5 1027.8R
THOMAS POINT MD  2300   36 46  300/ 18/ 21   N/A
GOOSES REEF MD   2250   38     290/ 17/ 21 1029.3R
COVE POINT MD    2248   35     330/ 14/ 22 1028.9R
SOLOMONS ISLAND  2248          290/ 10/ 17   N/A
BISHOPS HEAD MD  2248   37 39  310/ 16/ 22 1028.5R
PINEY POINT MD   2248          350/ 23/ 25   N/A
POTOMAC MD       2250   39     320/ 21/ 27 1028.0R
CAMBRIDGE MD     2248   37 44  290/ 13/ 19 1027.2R
LEWISETTA VA     2248   38 45  340/ 11/ 15 1028.6R
RAPPAHANNOCK LGT 2248          300/ 24/ 28 1028.7R
STINGRAY PT      2250   40     330/ 16/ 19 1029.2R
YORK RVR RNG VA  2248   40     320/ 11/ 13 1028.2R
YORKTOWN VA      2248   40 49  340/ 13/ 16 1028.4R
JAMESTOWN VA     2250   40     310/ 10/ 14   N/A
DOMINION TERM VA 2248   40     310/ 14/ 17 1028.6R
KIPTOPEKE VA     2248          330/ 21/ 26   N/A
CHES BAY BRIDGE  2248   40 50  320/ 17/ 21 1028.4R
CAPE HENRY VA    2248   40     330/ 22/ 26   N/A
WILLOUBY STN VA  2248   40     310/ 11/ 13 1029.5R
S CRANEY ISL VA  2248   38     280/  5/  8 1028.6R
CAPE HENRY BUOY  2242      53                N/A     4/ 4
1ST LANDING BUOY 2250   41                 1028.3R
CAPE CHARLES BUO 2256      53                N/A     3/ 4
OFFSHORE WE BUOY 2251      55                N/A     5/ 6
64NM E OF VA BCH 2250   42 59  320/ 21/ 29 1026.7R   6/ 6
DUCK PIER NC     2248   40 52  320/ 14/ 16 1027.9R
44100 DUCK FRF   2235      55                N/A     5/ 7
OREGON INLET NC  2242   38 52  320/  8/ 10 1028.4R
HATTERAS NC      2248          330/ 14/ 17   N/A
DIAMOND SHLS NC  2250   43 76  350/ 16/ 21 1028.2R   5/ 9   5/ 9
CAPE LOOKOUT NC  2300   40     340/ 14/ 17 1029.0R
$$




USA.gov is the U.S. government's official web portal to all federal, state and local government web resources and services.